[[{"header":{"parameterUnit":"m.s-1","parameterCategory":1,"la1":30.2991,"la2":30.254,"lo1":-89.0895,"lo2":-89.0444,"dy":0.0017,"dx":0.0017,"nx":28,"ny":28,"refTime":"2025-11-05T09:00:00:Z","depth":0,"parameterNumber":2,"parameterNumberName":"U-component_of_WINDS"},"data":[0,0,0,0,0,0,0,0,0,0,0,0,0,0,0,0,0,0,0,0,0,0,0,0,0,0,0,0,0,0,0,0,0,0,0,0,0,0,0,0,0,0,0,0,0,0,0,0,0,0,0,0,0,0,0,0,0,0,-1.2835,-1.2836,0,-1.2854,-1.2855,-1.2855,-1.278,-1.2778,-1.2776,-1.2774,-1.2796,-1.2799,-1.2801,0,0,0,0,0,0,0,0,0,0,0,0,0,-1.2736,-1.2738,-1.2835,-1.2836,-1.2836,-1.2854,-1.2855,-1.2855,-1.2781,-1.2778,-1.2775,-1.2773,-1.2795,-1.2799,-1.2802,0,0,0,0,0,0,0,0,0,0,0,0,0,-1.277,-1.2739,-1.2835,-1.2801,-1.2798,-1.2854,-1.2855,-1.2855,-1.2781,-1.2778,-1.2774,-1.2771,-1.2794,-1.2798,-1.2802,-1.2893,0,0,-1.2814,-1.2816,0,0,0,0,0,0,0,0,-1.2768,-1.2773,-1.2806,-1.2803,-1.28,-1.2811,-1.2828,-1.2868,-1.2782,-1.2788,-1.2774,-1.277,-1.2804,-1.2807,-1.2818,-1.2894,-1.2895,-1.2815,-1.2817,-1.2819,-1.282,0,0,0,0,0,0,0,-1.2766,-1.2772,-1.2843,-1.2806,-1.2803,-1.2785,-1.2786,-1.2835,-1.2814,-1.2787,-1.2782,-1.2785,-1.2802,-1.2814,-1.2818,-1.2896,-1.2815,-1.2818,-1.2821,-1.2822,-1.3046,-1.305,0,0,0,0,0,0,-1.2768,-1.2771,-1.2842,-1.2843,-1.2775,-1.2789,-1.2791,-1.2811,-1.2814,-1.2811,-1.2787,-1.2781,-1.2809,-1.2814,-1.2819,-1.2925,-1.2819,-1.2823,-1.2825,-1.3043,-1.3047,-1.3051,0,0,0,0,0,0,-1.2766,-1.2775,-1.2841,-1.2806,-1.2813,-1.2795,-1.2818,-1.2813,-1.2826,-1.2814,-1.281,-1.2804,-1.2807,-1.2813,-1.2875,-1.2925,-1.2824,-1.2828,-1.3039,-1.3044,-1.3049,-1.314,0,0,0,0,0,0,-1.2763,-1.2774,-1.2809,-1.2807,-1.2815,-1.2898,-1.2821,-1.2816,-1.2832,-1.2824,-1.2828,-1.2826,-1.2805,-1.2869,-1.2879,-1.2929,-1.2831,-1.3034,-1.3041,-1.3047,-1.3132,-1.3148,-1.3161,0,0,0,0,0,-1.276,-1.2835,-1.2811,-1.282,-1.2857,-1.29,-1.2905,-1.2878,-1.2837,-1.2871,-1.2863,-1.2826,-1.2917,-1.2876,-1.2886,-1.2938,-1.3031,-1.3039,-1.3047,-1.3126,-1.3145,-1.316,0,0,0,0,0,0,-1.2845,-1.2834,-1.2808,-1.2884,-1.2893,-1.2888,-1.2931,-1.2899,-1.2922,-1.2913,-1.288,-1.2881,-1.2949,-1.2949,-1.2904,-1.3026,-1.2967,-1.2978,-1.3024,-1.3041,-1.3055,-1.3055,-1.2834,0,0,0,0,0,-1.2872,-1.2907,-1.2896,-1.2964,-1.297,-1.295,-1.2967,-1.2945,-1.2955,-1.2959,-1.2956,-1.2967,-1.2998,-1.3019,-1.3047,-1.3131,-1.3131,-1.3171,-1.3186,-1.3197,-1.3207,-1.3251,-1.3269,-1.3077,-1.3077,-1.3077,0,0,-1.2929,-1.2927,-1.2952,-1.2981,-1.2986,-1.3023,-1.2954,-1.2997,-1.3025,-1.2966,-1.3024,-1.3022,-1.3031,-1.3105,-1.3137,-1.3107,-1.326,-1.3208,-1.3217,-1.3221,-1.3261,-1.328,-1.3296,-1.3083,-1.3082,-1.3081,0,0,-1.3053,-1.3055,-1.3112,-1.3117,-1.3125,-1.3111,-1.3124,-1.3123,-1.3119,-1.3176,-1.3132,-1.3165,-1.3219,-1.3228,-1.3239,-1.3364,-1.333,-1.3374,-1.3449,-1.3492,-1.3507,-1.352,-1.3565,-1.3581,-1.3383,-1.3383,-1.3384,0,-1.3124,-1.3178,-1.3145,-1.3191,-1.3205,-1.3151,-1.3208,-1.3216,-1.3233,-1.3244,-1.321,-1.3276,-1.3279,-1.3353,-1.3383,-1.3394,-1.3409,-1.3374,-1.3507,-1.352,-1.3532,-1.3574,-1.3591,-1.3389,-1.3388,-1.3388,-1.3387,0,-1.3265,-1.3303,-1.3348,-1.3364,-1.3383,-1.3434,-1.3409,-1.3432,-1.3408,-1.3397,-1.3455,-1.3456,-1.3483,-1.3499,-1.3477,-1.357,-1.3551,-1.3513,-1.3453,-1.3556,-1.3596,-1.3611,-1.3396,-1.3395,-1.3393,-1.3392,0,0,-1.3446,-1.344,-1.3458,-1.3464,-1.3467,-1.3496,-1.3545,-1.357,-1.359,-1.3603,-1.3643,-1.3689,-1.3653,-1.3666,-1.3643,-1.3681,-1.3779,-1.3638,-1.3637,-1.3665,-1.3882,-1.3912,-1.3932,-1.3756,-1.3759,-1.3761,-1.3882,0,-1.3567,-1.3649,-1.362,-1.3704,-1.3739,-1.3687,-1.3729,-1.3736,-1.3726,-1.3754,-1.3744,-1.3777,-1.3727,-1.3734,-1.3769,-1.376,-1.3823,-1.3751,-1.3794,-1.3796,-1.3795,-1.3952,-1.3984,-1.4098,-1.3897,-1.39,-1.3901,0,-1.3722,-1.3739,-1.3826,-1.3822,-1.3835,-1.3874,-1.3893,-1.3921,-1.3927,-1.3917,-1.3931,-1.39,-1.3947,-1.3885,-1.395,-1.3902,-1.3917,-1.3915,-1.3919,-1.3924,-1.3856,-1.3962,-1.4134,-1.4152,-1.3925,-1.3923,-1.3922,0,-1.3846,-1.3891,-1.3948,-1.3955,-1.3951,-1.3979,-1.3979,-1.3982,-1.3998,-1.4015,-1.4026,-1.4049,-1.4062,-1.408,-1.4056,-1.4013,-1.4124,-1.4061,-1.4118,-1.4119,-1.4146,-1.4145,-1.4324,-1.4154,-1.4153,-1.4153,-1.4153,0,-1.3986,-1.4042,-1.4004,-1.404,-1.41,-1.4065,-1.4126,-1.412,-1.4122,-1.4156,-1.4112,-1.4145,-1.411,-1.414,-1.4121,-1.4178,-1.4184,-1.4178,-1.4172,-1.4183,-1.4184,-1.4194,-1.4186,-1.4158,-1.4157,-1.4156,-1.4155,0,-1.4136,-1.4112,-1.4172,-1.4163,-1.4161,-1.4207,-1.4199,-1.4231,-1.4217,-1.4261,-1.4269,-1.4248,-1.428,-1.4257,-1.429,-1.4277,-1.4351,-1.4334,-1.4349,-1.4345,-1.4404,-1.4399,-1.4597,-1.4621,-1.4435,-1.4436,-1.4438,0,-1.4228,-1.4269,-1.4263,-1.4282,-1.4284,-1.4316,-1.4331,-1.4298,-1.4316,-1.4325,-1.4357,-1.4385,-1.4406,-1.446,-1.4448,-1.4472,-1.4456,-1.4524,-1.446,-1.4468,-1.4458,-1.4457,-1.4461,-1.4538,-1.454,-1.4541,-1.4543,0,-1.4394,-1.4379,-1.4403,-1.4423,-1.4443,-1.4457,-1.4468,-1.4486,-1.4451,-1.4474,-1.4506,-1.4522,-1.4554,-1.4583,-1.4602,-1.4602,-1.4568,-1.4563,-1.4577,-1.4589,-1.4596,-1.4594,-1.4386,-1.4559,-1.4557,-1.4556,-1.4555,-1.4555,-1.4518,-1.4552,-1.4553,-1.4581,-1.4584,-1.4595,-1.4625,-1.4614,-1.4639,-1.4662,-1.464,-1.4679,-1.4682,-1.4704,-1.4708,-1.4738,-1.471,-1.4732,-1.4737,-1.4743,-1.4752,-1.459,-1.4741,-1.4741,-1.474,-1.474,-1.474,0,-1.4682,-1.468,-1.4705,-1.4721,-1.4742,-1.4705,-1.4714,-1.4735,-1.4769,-1.4775,-1.4795,-1.4831,-1.4858,-1.4847,-1.4871,-1.4897,-1.4881,-1.4904,-1.4903,-1.4903,-1.4775,-1.476,-1.4916,-1.4916,-1.4916,-1.4916,-1.4916,-1.4916,-1.4771,-1.4826,-1.4811,-1.4868,-1.4864,-1.49,-1.4909,-1.4918,-1.4922,-1.4964,-1.4986,-1.4977,-1.4976,-1.4999,-1.5022,-1.5018,-1.5029,-1.5058,-1.5049,-1.493,-1.4912,-1.4896,-1.4882,-1.5061,-1.5061,-1.5175,-1.5176,-1.5177]},{"header":{"parameterUnit":"m.s-1","parameterCategory":1,"la1":30.2991,"la2":30.254,"lo1":-89.0895,"lo2":-89.0444,"dy":0.0017,"dx":0.0017,"nx":28,"ny":28,"refTime":"2025-11-05T09:00:00:Z","depth":0,"parameterNumber":3,"parameterNumberName":"V-component_of_WINDS"},"data":[0,0,0,0,0,0,0,0,0,0,0,0,0,0,0,0,0,0,0,0,0,0,0,0,0,0,0,0,0,0,0,0,0,0,0,0,0,0,0,0,0,0,0,0,0,0,0,0,0,0,0,0,0,0,0,0,0,0,-3.4082,-3.4083,0,-3.4175,-3.4176,-3.4177,-3.4164,-3.4163,-3.4161,-3.416,-3.425,-3.4254,-3.4257,0,0,0,0,0,0,0,0,0,0,0,0,0,-3.3889,-3.3893,-3.4082,-3.4083,-3.4084,-3.4175,-3.4176,-3.4177,-3.4165,-3.4163,-3.4161,-3.4159,-3.4249,-3.4253,-3.4258,0,0,0,0,0,0,0,0,0,0,0,0,0,-3.3976,-3.3894,-3.4082,-3.4089,-3.4091,-3.4174,-3.4176,-3.4177,-3.4165,-3.4163,-3.416,-3.4158,-3.4247,-3.4253,-3.4258,-3.4339,0,0,-3.4276,-3.4278,0,0,0,0,0,0,0,0,-3.3971,-3.3983,-3.4087,-3.4089,-3.4091,-3.4156,-3.4141,-3.4231,-3.4166,-3.4137,-3.416,-3.4157,-3.422,-3.4228,-3.425,-3.4343,-3.4347,-3.4276,-3.428,-3.4282,-3.4284,0,0,0,0,0,0,0,-3.3965,-3.3979,-3.4119,-3.4088,-3.4091,-3.4086,-3.4096,-3.4158,-3.419,-3.4139,-3.4138,-3.415,-3.4221,-3.4245,-3.4252,-3.4349,-3.4276,-3.4281,-3.4285,-3.4287,-3.451,-3.4512,0,0,0,0,0,0,-3.3958,-3.3974,-3.4116,-3.4121,-3.4024,-3.4091,-3.4102,-3.4137,-3.4189,-3.4195,-3.4152,-3.4149,-3.4236,-3.4245,-3.4255,-3.4351,-3.4282,-3.4288,-3.4291,-3.4507,-3.451,-3.4513,0,0,0,0,0,0,-3.3954,-3.3971,-3.4112,-3.4048,-3.4065,-3.4097,-3.4136,-3.414,-3.4164,-3.4199,-3.4204,-3.4171,-3.4235,-3.4247,-3.4318,-3.4354,-3.429,-3.4295,-3.4504,-3.4508,-3.4512,-3.4545,0,0,0,0,0,0,-3.3949,-3.3969,-3.4002,-3.4049,-3.4069,-3.4175,-3.4138,-3.4144,-3.4175,-3.4172,-3.4218,-3.4223,-3.4234,-3.431,-3.4324,-3.4361,-3.43,-3.4501,-3.4506,-3.4511,-3.4541,-3.455,-3.4557,0,0,0,0,0,-3.3942,-3.4007,-3.4004,-3.4021,-3.411,-3.4177,-3.4189,-3.4201,-3.4178,-3.4209,-3.4231,-3.4222,-3.4349,-3.4317,-3.4333,-3.4372,-3.4499,-3.4505,-3.451,-3.4537,-3.4548,-3.4557,0,0,0,0,0,0,-3.3962,-3.4013,-3.401,-3.4093,-3.4131,-3.4175,-3.4215,-3.4212,-3.4256,-3.4251,-3.4263,-3.4274,-3.4345,-3.4366,-3.433,-3.4452,-3.442,-3.4429,-3.4435,-3.4446,-3.4454,-3.4446,-3.4305,0,0,0,0,0,-3.3977,-3.4029,-3.407,-3.4139,-3.4158,-3.4184,-3.4213,-3.4219,-3.4258,-3.4274,-3.4301,-3.4338,-3.4386,-3.4417,-3.4464,-3.4544,-3.4553,-3.4579,-3.4587,-3.4594,-3.4601,-3.4642,-3.4654,-3.4532,-3.4531,-3.4531,0,0,-3.4007,-3.4041,-3.4073,-3.4144,-3.4174,-3.4225,-3.4197,-3.4253,-3.429,-3.4282,-3.435,-3.4372,-3.4414,-3.4489,-3.4524,-3.4509,-3.4636,-3.4601,-3.4606,-3.4609,-3.4649,-3.4661,-3.4671,-3.4535,-3.4535,-3.4534,0,0,-3.4087,-3.4119,-3.4179,-3.421,-3.4257,-3.4273,-3.4287,-3.4332,-3.4346,-3.4415,-3.441,-3.4453,-3.4537,-3.4566,-3.4592,-3.4682,-3.4674,-3.4697,-3.4738,-3.4779,-3.4788,-3.4797,-3.4827,-3.4838,-3.4704,-3.4704,-3.4704,0,-3.4117,-3.4196,-3.421,-3.4266,-3.4297,-3.4293,-3.4352,-3.4381,-3.444,-3.446,-3.4443,-3.4546,-3.4574,-3.4655,-3.4677,-3.4699,-3.4714,-3.4691,-3.4786,-3.4795,-3.4803,-3.4831,-3.4843,-3.4706,-3.4706,-3.4706,-3.4706,0,-3.423,-3.4285,-3.4328,-3.4385,-3.442,-3.4478,-3.4499,-3.4532,-3.4535,-3.4553,-3.4622,-3.4656,-3.4708,-3.4728,-3.4731,-3.4809,-3.4798,-3.4784,-3.4752,-3.4817,-3.4843,-3.4855,-3.471,-3.4709,-3.4708,-3.4708,0,0,-3.4325,-3.439,-3.4405,-3.443,-3.4481,-3.4522,-3.4579,-3.4631,-3.4659,-3.4699,-3.4745,-3.4815,-3.4802,-3.4831,-3.4837,-3.4873,-3.494,-3.4854,-3.4855,-3.4867,-3.5025,-3.5034,-3.5047,-3.4935,-3.4938,-3.4939,-3.5021,0,-3.4409,-3.451,-3.4524,-3.4613,-3.4662,-3.4659,-3.4708,-3.4743,-3.476,-3.4803,-3.4822,-3.4871,-3.4851,-3.4868,-3.4904,-3.4924,-3.4971,-3.4919,-3.4976,-3.4978,-3.4963,-3.5061,-3.5071,-3.5147,-3.5032,-3.5033,-3.5035,0,-3.452,-3.4564,-3.4658,-3.47,-3.4721,-3.4765,-3.4813,-3.4855,-3.4894,-3.4904,-3.4937,-3.4938,-3.4994,-3.4962,-3.5037,-3.5001,-3.5026,-3.5039,-3.5042,-3.5046,-3.5009,-3.5066,-3.5171,-3.5181,-3.5052,-3.5051,-3.5049,0,-3.4576,-3.466,-3.4726,-3.4748,-3.48,-3.4831,-3.4853,-3.489,-3.492,-3.4962,-3.4981,-3.5028,-3.5053,-3.5088,-3.5102,-3.5077,-3.5176,-3.5145,-3.5184,-3.5183,-3.5203,-3.5201,-3.5312,-3.5223,-3.5222,-3.5222,-3.5222,0,-3.4667,-3.4724,-3.4752,-3.4793,-3.4856,-3.487,-3.4932,-3.4953,-3.4986,-3.5029,-3.5029,-3.5069,-3.5086,-3.5128,-3.5138,-3.5198,-3.521,-3.5218,-3.522,-3.5217,-3.5216,-3.5231,-3.5225,-3.5225,-3.5224,-3.5224,-3.5223,0,-3.474,-3.4762,-3.4834,-3.4877,-3.4889,-3.4934,-3.497,-3.5008,-3.5026,-3.508,-3.5093,-3.512,-3.517,-3.5187,-3.5247,-3.5254,-3.5322,-3.5321,-3.531,-3.5309,-3.5346,-3.5342,-3.5469,-3.5485,-3.5388,-3.5388,-3.5389,0,-3.4795,-3.4839,-3.4888,-3.4917,-3.4941,-3.4989,-3.502,-3.5035,-3.5067,-3.5114,-3.5146,-3.5195,-3.5235,-3.5314,-3.5338,-3.5383,-3.5381,-3.5422,-3.5387,-3.5382,-3.5378,-3.5375,-3.5378,-3.5428,-3.5429,-3.543,-3.543,0,-3.489,-3.4899,-3.4944,-3.4992,-3.5029,-3.5068,-3.5105,-3.5129,-3.5149,-3.5185,-3.5236,-3.5267,-3.5328,-3.5376,-3.5423,-3.5444,-3.544,-3.5442,-3.5452,-3.5449,-3.5439,-3.5443,-3.5325,-3.5438,-3.5437,-3.5437,-3.5436,-3.5436,-3.4955,-3.4993,-3.5032,-3.5082,-3.5112,-3.5146,-3.5184,-3.5207,-3.525,-3.5302,-3.5308,-3.5362,-3.5398,-3.546,-3.5484,-3.5525,-3.5513,-3.553,-3.5533,-3.5537,-3.5538,-3.5435,-3.5534,-3.5533,-3.5533,-3.5533,-3.5533,0,-3.5047,-3.5072,-3.5118,-3.5171,-3.5209,-3.5204,-3.5245,-3.5277,-3.5325,-3.536,-3.54,-3.5458,-3.5504,-3.5532,-3.5578,-3.5605,-3.5604,-3.5616,-3.5613,-3.5618,-3.5547,-3.5532,-3.5616,-3.5616,-3.5616,-3.5616,-3.5616,-3.5616,-3.51,-3.5163,-3.5176,-3.5254,-3.5278,-3.5333,-3.5356,-3.5387,-3.5415,-3.548,-3.5519,-3.5537,-3.5568,-3.5616,-3.5658,-3.5665,-3.568,-3.5693,-3.5698,-3.5632,-3.5623,-3.5615,-3.56,-3.5697,-3.5698,-3.5765,-3.5766,-3.5766]}]]